Date,TemperatureHighF,TemperatureAvgF,TemperatureLowF,DewpointHighF,DewpointAvgF,DewpointLowF,HumidityHigh,HumidityAvg,HumidityLow,PressureMaxIn,PressureMinIn,WindSpeedMaxMPH,WindSpeedAvgMPH,GustSpeedMaxMPH,PrecipitationSumIn
2013-5-1,69.7,55.6,37.9,53.0,38.7,26.3,92,54,31,30.48,30.31,12,1,12,0.00
2013-5-2,75.7,57.4,43.7,58.7,44.0,26.3,97,65,27,30.46,30.37,21,2,21,0.00
2013-5-3,63.2,49.6,37.7,53.0,42.2,36.3,97,78,48,30.50,30.34,16,2,16,0.00
2013-5-4,66.3,52.9,41.1,55.7,44.7,36.5,97,77,38,30.36,30.28,17,2,17,0.00
2013-5-6,72.7,63.1,49.3,54.8,47.4,31.0,97,59,32,30.28,30.14,11,2,11,0.00
2013-5-7,78.1,63.2,46.8,60.2,53.0,40.0,98,74,36,30.21,30.13,12,1,12,0.00
2013-5-8,68.1,59.4,51.3,64.3,58.0,50.5,98,95,72,30.24,30.06,16,2,16,0.81
2013-5-9,64.7,58.1,53.8,61.4,57.1,53.0,98,96,81,30.06,29.91,8,1,9,0.10
2013-5-10,75.7,62.6,49.9,61.3,55.6,49.0,98,80,51,30.03,29.91,8,1,8,0.01
2013-5-11,62.9,60.0,57.8,62.3,59.4,56.7,98,98,84,29.93,29.72,10,1,10,0.78
2013-5-12,62.5,54.1,42.9,57.5,46.6,26.0,98,78,45,29.77,29.63,16,2,16,0.05
2013-5-13,48.0,41.9,36.8,37.3,32.3,24.3,95,70,50,30.00,29.76,16,2,16,0.00
2013-5-14,51.8,44.2,38.6,43.0,35.4,28.0,96,74,44,30.03,29.96,13,3,13,0.00
2013-5-15,61.9,48.8,35.1,52.1,42.6,30.9,97,82,43,30.01,29.67,15,2,19,0.03
2013-5-16,72.9,61.0,47.9,57.7,49.7,33.7,97,69,32,29.84,29.64,17,2,22,0.00
2013-5-17,61.7,52.3,44.3,48.2,43.0,35.5,97,73,41,30.20,29.84,19,3,19,0.00
2013-5-18,67.8,55.6,40.9,53.1,44.5,34.7,97,71,36,30.33,30.19,7,1,7,0.00
2013-5-19,66.9,54.2,44.2,59.3,51.1,42.8,98,90,60,30.35,30.18,8,1,9,0.08
2013-5-20,73.9,62.0,52.8,71.0,59.9,52.0,99,93,65,30.19,30.02,12,1,12,0.01
2013-5-21,80.9,61.9,47.8,69.6,59.1,47.0,98,91,59,30.08,29.95,14,2,14,0.58
2013-5-22,57.9,51.2,47.9,56.7,50.4,47.1,97,97,97,29.98,29.87,10,1,12,0.77
2013-5-27,63.6,59.1,44.9,49.2,46.0,37.7,97,63,42,30.16,30.12,9,3,10,0.00
2013-5-28,68.8,49.6,44.9,54.1,45.3,43.8,96,87,50,30.20,30.16,4,0,4,0.00
2013-5-29,59.3,59.0,57.4,58.0,51.3,48.7,98,77,68,30.17,30.08,3,0,4,0.24